Location: Baia Mare
(47.6567°N, 23.5850°E)
Time: 03:11:56
(UTC+02:00)

ISS - Pass Details

Date: 06 February 2018
Orbit: 403 x 407 km, 51.6° (Epoch: 22 February)

Event Time Altitude Azimuth Distance (km) Brightness Sun altitude
Rises 19:57:08 0° 293° (WNW) 2,322 1.2 -24.3°
Reaches altitude 10° 19:59:13 10° 293° (WNW) 1,461 -0.1 -24.7°
Enters shadow 20:01:01 30° 290° (WNW) 752 -1.9 -25.0°
